Regional Weather Roundup
Issued by NWS Charleston, WV

Home | Current Version | Previous Version | Text Only | Print | Product List | Glossary On
Versions: 1 2 3 4 5 6 7 8 9 10 11 12 13 14 15 16 17 18 19 20 21 22 23 24 25 26 27 28 29 30 31 32 33 34 35 36 37 38 39 40 41 42 43 44 45 46 47 48 49 50
226
ASUS41 KRLX 091210
RWRRLX
West Virginia Regional Weather Roundup
National Weather Service Charleston WV
700 AM EST TUE FEB 09 2016

Note: "fair" indicates few or no clouds below 12,000 feet with no
significant weather and/or obstructions to visibility.

WVZ003-091300-
Northern Panhandle of West Virginia

CITY           SKY/WX    TMP DP  RH WIND       PRES   REMARKS
WHEELING       LGT SNOW  30  28  92 NW6       29.54S VSB 1
$$

WVZ009-091300-
Northwest West Virginia

CITY           SKY/WX    TMP DP  RH WIND       PRES   REMARKS
PARKERSBURG    LGT SNOW  24  21  88 SW6G20    29.68R VSB 1
$$

WVZ006-091300-
Western West Virginia

CITY           SKY/WX    TMP DP  RH WIND       PRES   REMARKS
HUNTINGTON     FLURRIES  24  17  74 W7        29.73R
$$

WVZ015-091300-
West Central West Virginia

CITY           SKY/WX    TMP DP  RH WIND       PRES   REMARKS
CHARLESTON     FLURRIES  26  20  77 NW10G16   29.69R
$$

WVZ022-031-091300-
North Central West Virginia

CITY           SKY/WX    TMP DP  RH WIND       PRES   REMARKS
CLARKSBURG     LGT SNOW  27  24  89 W10       29.59R FOG
MORGANTOWN     SNOW      30  26  85 CALM      29.55S VSB 1/2
$$

WVZ025-035-042-045-091300-
Southern West Virginia

CITY           SKY/WX    TMP DP  RH WIND       PRES   REMARKS
BECKLEY        LGT SNOW  21  17  84 W7        29.60R FOG
LOGAN          CLOUDY    23  19  86 W8        29.67R
BLUEFIELD      LGT SNOW  20  17  88 W9        29.59R FOG     WCI   9
LEWISBURG      LGT SNOW  29  25  87 W10       29.58R
$$

WVZ047-091300-
Northern Mountains of West Virginia

CITY           SKY/WX    TMP DP  RH WIND       PRES   REMARKS
ELKINS         LGT SNOW  27  21  78 W8G20     29.56R
$$

WVZ052-091300-
Eastern Panhandle of West Virginia

CITY           SKY/WX    TMP DP  RH WIND       PRES   REMARKS
MARTINSBURG    MIX PCPN  34  32  92 CALM      29.56R FOG
PETERSBURG     CLOUDY    33  32  96 CALM      29.56R
$$




USA.gov is the U.S. government's official web portal to all federal, state and local government web resources and services.